�N����,����,�~����,�C��,���x,�C��,����,���ϕ���,�ő�u�ԕ���,�ő厞����,���˗�,�I�_���x,�n�����x,�ő啗���N��,DTYPE
"20/05/21","00:10",0.0,15.0,87.1,1005.2,290.5,0.8,1.4,306.4,0.00,12.9,18.2,"00:00:48",1
"20/05/21","00:20",0.0,15.0,87.4,1005.2,286.7,1.0,1.4,324.1,0.00,13.0,18.2,"00:15:52",1
"20/05/21","00:30",0.0,14.9,87.7,1005.2,291.1,0.7,1.2,276.8,0.00,12.9,18.4,"00:20:08",1
"20/05/21","00:40",0.0,15.0,88.0,1005.0,300.7,1.0,1.2,316.6,0.00,13.1,18.2,"00:37:20",1
"20/05/21","00:50",0.0,15.0,88.2,1005.2,297.8,1.0,1.4,337.0,0.00,13.1,18.2,"00:42:32",1
"20/05/21","01:00",0.0,15.0,88.4,1005.2,288.0,0.8,1.1,321.8,0.00,13.1,18.2,"00:59:20",1
"20/05/21","01:10",0.0,15.0,88.7,1005.2,302.8,1.2,1.7,318.9,0.00,13.2,18.1,"01:07:44",1
"20/05/21","01:20",0.0,14.9,88.9,1005.2,326.1,1.1,1.6,326.9,0.00,13.1,18.1,"01:19:52",1
"20/05/21","01:30",0.0,14.8,89.1,1005.5,295.8,0.8,1.9,343.9,0.00,13.1,18.1,"01:21:52",1
"20/05/21","01:40",0.0,14.7,89.3,1005.5,292.0,0.3,1.1,312.4,0.00,13.0,18.2,"01:30:48",1
"20/05/21","01:50",0.0,14.4,89.4,1005.5,246.4,0.2,0.9,290.3,0.00,12.7,17.9,"01:49:36",1
"20/05/21","02:00",0.0,14.1,89.7,1005.2,296.4,1.1,1.6,325.9,0.00,12.5,17.9,"01:58:40",1
"20/05/21","02:10",0.0,14.0,90.0,1005.5,324.6,1.3,1.9,313.2,0.00,12.4,17.7,"02:07:12",1
"20/05/21","02:20",0.0,14.2,90.2,1005.5,313.7,1.3,2.2,322.8,0.00,12.7,17.9,"02:14:32",1
"20/05/21","02:30",0.0,14.2,90.4,1005.5,296.7,1.1,1.4,287.1,0.00,12.7,18.0,"02:21:52",1
"20/05/21","02:40",0.0,14.3,90.6,1005.7,326.1,1.1,1.7,333.3,0.00,12.8,17.7,"02:33:36",1
"20/05/21","02:50",0.0,14.3,90.7,1005.7,318.7,1.3,1.8,323.2,0.00,12.8,17.7,"02:46:08",1
"20/05/21","03:00",0.0,14.2,90.9,1005.7,281.5,1.0,1.4,267.0,0.00,12.8,17.8,"02:56:00",1
"20/05/21","03:10",0.0,14.3,91.0,1005.7,302.6,1.2,1.6,322.3,0.00,12.9,17.7,"03:05:26",1
"20/05/21","03:20",0.0,14.5,91.0,1006.0,291.7,1.0,1.4,326.2,0.00,13.1,17.6,"03:10:56",1
"20/05/21","03:30",0.0,14.4,91.1,1006.2,286.4,1.0,1.4,316.3,0.00,13.0,17.7,"03:28:08",1
"20/05/21","03:40",0.0,14.5,91.1,1006.2,287.1,0.8,1.3,269.6,0.00,13.1,17.7,"03:38:08",1
"20/05/21","03:50",0.0,14.5,91.1,1006.4,281.3,1.0,1.3,312.3,0.00,13.1,17.5,"03:49:12",1
"20/05/21","04:00",0.0,14.4,91.1,1006.2,296.3,1.1,1.6,309.3,0.00,13.0,17.6,"03:51:04",1
"20/05/21","04:10",0.0,14.4,91.1,1006.2,281.4,1.1,1.6,295.2,0.00,13.0,17.6,"04:03:20",1
"20/05/21","04:20",0.0,14.3,91.1,1006.4,297.5,1.0,1.2,297.3,0.00,12.9,17.6,"04:10:16",1
"20/05/21","04:30",0.0,14.4,91.0,1006.4,323.9,1.0,1.3,322.3,0.00,13.0,17.6,"04:25:28",1
"20/05/21","04:40",0.0,14.6,91.1,1006.7,210.4,1.0,2.9,216.0,0.00,13.2,17.5,"04:34:24",1
"20/05/21","04:50",0.0,14.5,91.2,1006.7,225.4,0.7,1.7,196.9,0.00,13.1,17.6,"04:40:24",1
"20/05/21","05:00",0.0,14.4,91.3,1006.9,197.2,0.6,1.8,146.4,0.00,13.0,17.6,"04:52:48",1
"20/05/21","05:10",0.0,14.4,91.5,1006.9,196.3,0.6,1.4,203.4,0.00,13.1,17.4,"05:00:48",1
"20/05/21","05:20",0.0,14.5,91.6,1007.1,188.2,0.6,1.3,192.3,0.00,13.2,17.5,"05:15:28",1
"20/05/21","05:30",0.0,14.5,91.7,1007.1,181.6,0.6,1.3,169.4,0.00,13.2,17.3,"05:29:12",1
"20/05/21","05:40",0.0,14.3,91.8,1007.1,101.9,0.7,1.9,109.6,0.00,13.0,17.6,"05:35:04",1
"20/05/21","05:50",0.0,14.1,92.0,1007.6,96.0,0.7,1.7,127.3,0.00,12.9,17.3,"05:43:20",1
"20/05/21","06:00",0.0,14.1,92.2,1007.8,34.0,0.5,1.6,340.4,0.00,12.9,17.5,"05:57:36",1
"20/05/21","06:10",0.0,14.2,92.3,1007.8,331.0,1.3,2.0,336.1,0.02,13.0,17.3,"06:05:02",1
"20/05/21","06:20",0.0,14.3,92.5,1007.6,310.4,1.2,1.8,332.5,0.04,13.1,17.5,"06:12:56",1
"20/05/21","06:30",0.0,14.5,92.6,1007.8,268.9,1.1,1.7,242.0,0.07,13.4,17.5,"06:25:44",1
"20/05/21","06:40",0.0,14.8,92.5,1007.6,259.9,0.8,1.4,275.3,0.08,13.6,17.5,"06:30:56",1
"20/05/21","06:50",0.0,14.8,92.5,1007.6,232.7,1.0,1.9,233.7,0.07,13.6,17.4,"06:42:56",1
"20/05/21","07:00",0.0,14.9,92.5,1007.8,238.1,1.3,2.8,235.8,0.09,13.7,17.6,"06:53:44",1
"20/05/21","07:10",0.0,15.1,92.2,1008.3,212.2,0.8,1.7,149.2,0.12,13.9,17.7,"07:03:20",1
"20/05/21","07:20",0.0,15.7,92.2,1008.6,215.2,0.6,1.6,246.4,0.16,14.5,17.6,"07:11:20",1
"20/05/21","07:30",0.0,16.2,91.8,1008.6,154.7,0.6,1.4,130.3,0.20,14.9,17.8,"07:22:16",1
"20/05/21","07:40",0.0,16.0,91.0,1008.8,297.9,0.7,1.4,328.5,0.12,14.6,17.8,"07:33:28",1
"20/05/21","07:50",0.0,16.2,90.3,1009.0,222.7,0.3,1.0,129.2,0.10,14.7,17.8,"07:45:28",1
"20/05/21","08:00",0.0,16.0,89.4,1009.3,192.2,0.7,2.2,133.3,0.11,14.3,18.1,"07:58:24",1
"20/05/21","08:10",0.0,15.8,88.1,1009.0,207.4,1.6,3.6,204.8,0.13,13.9,18.1,"08:01:28",1
"20/05/21","08:20",0.0,16.0,86.7,1009.0,191.0,1.0,2.2,138.5,0.11,13.8,18.1,"08:17:12",1
"20/05/21","08:30",0.0,16.3,85.6,1008.8,153.6,1.0,2.1,120.5,0.11,13.9,18.2,"08:26:48",1
"20/05/21","08:40",0.0,16.4,84.8,1009.0,155.1,0.8,1.8,110.4,0.10,13.9,18.5,"08:37:12",1
"20/05/21","08:50",0.0,16.2,83.4,1009.0,178.9,1.0,2.0,235.3,0.10,13.4,18.4,"08:49:36",1
"20/05/21","09:00",0.0,16.5,82.4,1008.8,223.1,0.7,1.6,214.3,0.08,13.5,18.3,"08:50:08",1
"20/05/21","09:10",0.0,16.4,81.0,1008.8,199.4,1.5,2.9,205.1,0.10,13.2,18.5,"09:08:24",1
"20/05/21","09:20",0.0,16.6,80.8,1009.0,231.6,1.2,2.2,203.9,0.09,13.3,18.5,"09:11:28",1
"20/05/21","09:30",0.0,16.6,80.5,1009.0,212.7,1.2,2.6,237.1,0.09,13.3,18.3,"09:27:12",1
"20/05/21","09:40",0.0,16.9,80.5,1009.3,197.3,0.7,1.7,177.1,0.09,13.6,18.6,"09:32:00",1
"20/05/21","09:50",0.0,17.1,80.3,1008.8,237.0,0.6,1.6,97.6,0.11,13.7,18.6,"09:49:28",1
"20/05/21","10:00",0.0,17.2,79.5,1008.8,205.1,0.7,2.1,177.7,0.11,13.7,18.6,"09:50:16",1
"20/05/21","10:10",0.0,17.2,78.5,1008.8,173.8,1.2,3.1,181.6,0.13,13.5,18.7,"10:03:12",1
"20/05/21","10:20",0.0,17.5,76.7,1008.6,164.8,1.2,2.6,119.8,0.16,13.4,18.6,"10:13:04",1
"20/05/21","10:30",0.0,17.7,75.5,1008.6,196.6,0.8,2.4,124.5,0.15,13.4,18.7,"10:26:24",1
"20/05/21","10:40",0.0,17.9,74.0,1008.6,167.2,1.2,3.2,210.4,0.14,13.2,18.8,"10:30:08",1
"20/05/21","10:50",0.0,18.2,72.8,1008.3,253.2,0.6,1.9,144.8,0.15,13.3,19.0,"10:47:36",1
"20/05/21","11:00",0.0,18.3,70.8,1008.1,73.2,1.0,2.7,116.5,0.21,13.0,19.0,"10:58:32",1
"20/05/21","11:10",0.0,18.9,69.7,1008.3,253.5,0.8,2.4,238.1,0.27,13.3,18.9,"11:07:36",1
"20/05/21","11:20",0.0,19.5,68.3,1007.8,238.1,1.1,2.0,245.7,0.31,13.6,19.1,"11:12:16",1
"20/05/21","11:30",0.0,19.2,67.0,1007.8,241.5,1.3,2.6,238.7,0.21,13.0,19.1,"11:24:48",1
"20/05/21","11:40",0.0,19.0,67.5,1008.3,260.4,0.8,1.9,221.1,0.13,12.9,19.3,"11:34:24",1
"20/05/21","11:50",0.0,18.6,67.0,1008.1,251.5,1.0,2.4,228.6,0.10,12.4,19.2,"11:43:28",1
"20/05/21","12:00",0.0,18.6,67.4,1007.8,234.3,1.1,1.9,242.4,0.13,12.5,19.5,"11:51:12",1
"20/05/21","12:10",0.0,18.9,66.7,1007.8,254.2,1.5,2.7,231.4,0.21,12.6,19.7,"12:01:44",1
"20/05/21","12:20",0.0,19.5,65.4,1007.6,248.2,1.5,2.7,237.9,0.29,12.9,19.5,"12:17:20",1
"20/05/21","12:30",0.0,20.1,65.2,1007.4,236.1,1.0,2.4,226.9,0.35,13.4,19.7,"12:20:24",1
"20/05/21","12:40",0.0,20.4,62.8,1007.6,315.0,1.0,2.2,236.2,0.31,13.1,19.9,"12:31:12",1
"20/05/21","12:50",0.0,20.6,62.5,1007.1,2.4,1.2,3.1,345.1,0.34,13.2,20.0,"12:49:12",1
"20/05/21","13:00",0.0,20.9,60.3,1007.4,310.7,1.0,2.5,0.9,0.33,13.0,20.1,"12:54:40",1
"20/05/21","13:10",0.0,20.7,59.8,1006.9,300.4,1.3,3.4,348.0,0.30,12.7,20.2,"13:08:40",1
"20/05/21","13:20",0.0,21.2,58.9,1006.9,260.6,0.8,2.0,259.6,0.38,12.9,20.4,"13:10:40",1
"20/05/21","13:30",0.0,22.2,58.9,1006.9,340.7,1.0,2.2,348.4,0.50,13.8,20.7,"13:21:28",1
"20/05/21","13:40",0.0,23.2,54.9,1006.7,261.0,1.1,2.5,330.5,0.65,13.7,20.7,"13:36:48",1
"20/05/21","13:50",0.0,23.1,53.6,1006.7,356.1,1.0,2.9,0.7,0.47,13.2,20.6,"13:42:00",1
"20/05/21","14:00",0.0,22.7,55.9,1006.4,259.3,1.1,2.7,232.0,0.36,13.5,20.8,"13:58:32",1
"20/05/21","14:10",0.0,22.6,54.0,1006.4,325.0,1.6,3.5,347.2,0.42,12.9,21.3,"14:06:00",1
"20/05/21","14:20",0.0,22.9,53.3,1006.2,328.4,1.0,3.3,12.1,0.37,12.9,21.1,"14:14:40",1
"20/05/21","14:30",0.0,23.4,52.2,1006.4,293.1,0.8,3.2,229.5,0.40,13.1,21.3,"14:29:04",1
"20/05/21","14:40",0.0,22.4,55.7,1006.4,223.4,1.1,3.3,230.7,0.20,13.2,21.6,"14:30:32",1
"20/05/21","14:50",0.0,22.1,55.1,1006.2,22.5,0.8,2.7,7.5,0.15,12.7,21.4,"14:44:24",1
"20/05/21","15:00",0.0,22.0,55.5,1006.2,82.4,1.1,2.1,121.3,0.20,12.7,21.6,"14:57:20",1
"20/05/21","15:10",0.0,22.1,56.1,1006.2,146.5,0.7,2.0,132.9,0.16,13.0,21.8,"15:01:44",1
"20/05/21","15:20",0.0,21.8,53.9,1006.2,41.6,0.8,2.9,120.4,0.14,12.1,21.8,"15:10:40",1
"20/05/21","15:30",0.0,22.0,56.5,1006.2,226.0,0.7,2.1,234.1,0.12,13.0,21.7,"15:23:44",1
"20/05/21","15:40",0.0,21.6,56.5,1006.2,183.1,1.5,3.7,231.5,0.14,12.6,21.8,"15:34:32",1
"20/05/21","15:50",0.0,21.6,56.8,1006.7,154.8,1.0,1.9,209.5,0.11,12.7,21.6,"15:44:00",1
"20/05/21","16:00",0.0,21.6,59.3,1006.9,71.9,0.7,2.1,97.6,0.10,13.4,21.6,"15:52:56",1
"20/05/21","16:10",0.0,21.4,60.0,1006.9,72.6,1.0,2.2,54.6,0.09,13.4,21.7,"16:05:36",1
"20/05/21","16:20",0.0,21.0,61.7,1006.9,33.6,1.2,2.4,106.6,0.05,13.4,21.5,"16:10:32",1
"20/05/21","16:30",0.0,20.3,63.6,1006.9,353.2,2.1,4.7,344.6,0.03,13.2,21.5,"16:26:56",1
"20/05/21","16:40",0.0,19.8,64.9,1007.4,4.3,2.1,4.2,339.9,0.03,13.1,21.3,"16:36:08",1
"20/05/21","16:50",0.0,19.6,65.9,1007.4,348.7,1.8,3.7,349.0,0.03,13.1,21.3,"16:42:40",1
"20/05/21","17:00",0.0,19.5,66.4,1007.4,355.2,1.8,4.7,348.5,0.06,13.1,21.2,"16:54:48",1
"20/05/21","17:10",0.0,19.5,66.4,1007.6,9.4,1.8,4.1,354.0,0.05,13.1,21.2,"17:04:24",1
"20/05/21","17:20",0.0,19.8,66.4,1007.8,18.9,1.0,2.6,355.5,0.06,13.4,21.0,"17:18:48",1
"20/05/21","17:30",0.0,20.0,66.2,1008.1,348.5,1.3,2.5,12.4,0.04,13.5,20.9,"17:21:12",1
"20/05/21","17:40",0.0,20.1,65.5,1008.3,359.6,1.0,2.6,333.0,0.03,13.5,20.8,"17:33:52",1
"20/05/21","17:50",0.0,19.7,65.1,1008.3,13.4,1.1,2.7,7.1,0.02,13.0,20.7,"17:42:08",1
"20/05/21","18:00",0.0,19.6,65.7,1008.3,343.2,1.2,2.6,347.3,0.03,13.1,20.7,"17:50:16",1
"20/05/21","18:10",0.0,19.3,66.1,1008.8,7.6,1.1,3.5,349.3,0.02,12.9,20.7,"18:03:52",1
"20/05/21","18:20",0.0,19.2,66.9,1008.6,354.0,1.1,3.2,351.0,0.02,12.9,20.5,"18:17:12",1
"20/05/21","18:30",0.0,18.8,67.6,1008.8,356.9,1.8,3.6,1.7,0.01,12.7,20.4,"18:21:12",1
"20/05/21","18:40",0.0,18.5,68.5,1009.0,351.0,1.8,3.5,347.9,0.00,12.6,20.4,"18:34:40",1
"20/05/21","18:50",0.0,18.3,69.4,1009.3,347.2,1.7,3.3,340.4,0.00,12.6,20.4,"18:48:00",1
"20/05/21","19:00",0.0,17.9,70.2,1009.5,339.4,1.6,2.9,335.4,0.00,12.4,20.2,"18:56:16",1
"20/05/21","19:10",0.0,17.5,71.2,1009.3,345.0,1.8,4.1,333.3,0.00,12.3,20.1,"19:05:12",1
"20/05/21","19:20",0.0,17.3,71.9,1009.5,350.0,2.3,4.2,333.3,0.00,12.2,20.2,"19:16:00",1
"20/05/21","19:30",0.0,17.1,72.8,1009.5,343.6,2.3,4.5,341.5,0.00,12.2,20.0,"19:24:24",1
"20/05/21","19:40",0.0,17.0,73.5,1009.3,344.8,1.7,3.4,325.7,0.00,12.3,19.8,"19:31:36",1
"20/05/21","19:50",0.0,16.9,73.9,1009.5,356.9,1.2,2.6,336.8,0.00,12.3,19.8,"19:42:56",1
"20/05/21","20:00",0.0,16.8,74.1,1009.7,357.0,0.7,1.9,20.8,0.00,12.2,19.6,"19:57:20",1
"20/05/21","20:10",0.0,16.7,74.3,1010.2,281.4,0.3,1.6,8.1,0.00,12.1,19.6,"20:01:28",1
"20/05/21","20:20",0.0,16.7,74.4,1010.4,90.5,0.6,2.2,336.6,0.00,12.2,19.4,"20:10:02",1
"20/05/21","20:30",0.0,16.6,74.4,1010.4,331.5,1.1,1.8,358.2,0.00,12.1,19.5,"20:21:44",1
"20/05/21","20:40",0.0,16.4,74.9,1010.4,326.9,1.2,2.0,319.1,0.00,12.0,19.3,"20:35:36",1
"20/05/21","20:50",0.0,16.2,75.7,1010.7,327.4,1.2,2.1,327.3,0.00,11.9,19.2,"20:40:56",1
"20/05/21","21:00",0.0,16.0,76.7,1010.7,333.6,1.0,1.9,345.8,0.00,12.0,19.2,"20:50:32",1
"20/05/21","21:10",0.0,15.8,78.0,1010.9,339.9,0.8,1.8,336.5,0.00,12.0,19.1,"21:09:28",1
"20/05/21","21:20",0.0,15.5,79.2,1010.7,336.4,1.1,2.0,335.5,0.00,12.0,19.1,"21:19:44",1
"20/05/21","21:30",0.0,15.0,80.2,1010.7,310.5,1.1,1.8,329.0,0.00,11.7,18.9,"21:20:24",1
"20/05/21","21:40",0.0,14.7,81.3,1011.2,288.9,1.1,2.6,323.7,0.00,11.6,18.9,"21:32:08",1
"20/05/21","21:50",0.0,14.5,81.9,1010.7,275.3,1.0,1.2,292.9,0.00,11.5,18.9,"21:41:36",1
"20/05/21","22:00",0.0,14.4,82.6,1010.9,291.0,1.1,1.8,304.3,0.00,11.5,18.7,"21:56:16",1
"20/05/21","22:10",0.0,14.2,83.2,1011.2,301.5,1.2,1.7,313.5,0.00,11.4,18.7,"22:00:16",1
"20/05/21","22:20",0.0,14.0,83.9,1010.9,298.3,1.3,2.2,329.9,0.00,11.4,18.5,"22:15:12",1
"20/05/21","22:30",0.0,13.9,84.6,1010.9,304.2,1.2,1.6,316.7,0.00,11.4,18.4,"22:20:24",1
"20/05/21","22:40",0.0,14.0,85.3,1010.9,316.0,1.7,3.1,331.4,0.00,11.6,18.2,"22:36:00",1
"20/05/21","22:50",0.0,14.0,85.6,1010.9,306.5,1.3,2.4,323.3,0.00,11.7,18.2,"22:48:00",1
"20/05/21","23:00",0.0,13.8,85.9,1011.2,296.5,1.1,1.7,306.4,0.00,11.5,18.2,"22:57:52",1
"20/05/21","23:10",0.0,13.5,86.1,1011.2,276.9,0.7,1.4,261.8,0.00,11.3,18.3,"23:01:04",1
"20/05/21","23:20",0.0,13.2,86.5,1010.9,287.1,1.2,1.4,276.2,0.00,11.0,18.2,"23:13:04",1
"20/05/21","23:30",0.0,13.2,87.0,1010.9,298.6,1.5,1.8,300.4,0.00,11.1,17.9,"23:26:02",1
"20/05/21","23:40",0.0,13.0,87.4,1010.9,296.3,1.5,1.9,316.3,0.00,11.0,17.9,"23:39:44",1
"20/05/21","23:50",0.0,13.0,87.8,1011.2,318.9,1.7,2.4,333.5,0.00,11.1,17.9,"23:47:20",1
"20/05/21","24:00",0.0,12.9,88.1,1010.9,313.3,1.2,1.9,331.8,0.00,11.0,17.8,"23:50:56",1
